VJT402 EGGW-LIPZ

Flight info

Callsign VJT402
Flight time N/A
Altitude 39000
Route MATCH DCT DAGGA DCT ITVIP DCT KONAN DCT REMBA DCT KRH DCT TIRUL DCT NATAG DCT ADOSA/N0394F190 L612 ALBET
Aircraft CL60/M-ICAO/HB1D1

Departure

Time 2026-04-30 14:49
Airport London Luton Airport (EGGW)

Arrival

Time N/A
Airport Venice Marco Polo Airport (LIPZ)
Time Latitude Longitude Altitude Speed Heading
2026-04-30 14:30 51.87714 -0.37812 526 ft 0 kts 205°
2026-04-30 14:45 51.87714 -0.37813 525 ft 1 kts 212°
2026-04-30 14:46 51.87743 -0.37815 526 ft 9 kts 52°
2026-04-30 14:46 51.87737 -0.37684 525 ft 16 kts 115°
2026-04-30 14:46 51.87682 -0.37510 525 ft 18 kts 133°
2026-04-30 14:46 51.87562 -0.37456 527 ft 19 kts 197°
2026-04-30 14:47 51.87490 -0.37626 528 ft 21 kts 253°
2026-04-30 14:47 51.87445 -0.37880 523 ft 26 kts 253°
2026-04-30 14:47 51.87384 -0.38051 516 ft 19 kts 205°
2026-04-30 14:47 51.87353 -0.38073 514 ft 3 kts 205°
2026-04-30 14:48 51.87284 -0.38106 511 ft 16 kts 173°
2026-04-30 14:48 51.87254 -0.38058 513 ft 6 kts 84°
2026-04-30 14:48 51.87257 -0.38040 514 ft 0 kts 73°
2026-04-30 14:48 51.87259 -0.38033 515 ft 8 kts 74°
2026-04-30 14:49 51.87357 -0.37464 529 ft 96 kts 74°
2026-04-30 14:49 51.87602 -0.36084 620 ft 154 kts 76°
2026-04-30 14:49 51.87919 -0.34346 1136 ft 167 kts 78°
2026-04-30 14:49 51.88232 -0.32526 1532 ft 174 kts 79°
2026-04-30 14:50 51.88963 -0.28126 2716 ft 225 kts 79°
2026-04-30 14:50 51.89377 -0.25653 3517 ft 233 kts 79°
2026-04-30 14:51 51.89227 -0.20710 5152 ft 234 kts 129°
2026-04-30 14:51 51.87891 -0.19234 6009 ft 241 kts 155°
2026-04-30 14:51 51.84784 -0.17227 7780 ft 245 kts 155°
2026-04-30 14:52 51.83200 -0.16188 8677 ft 249 kts 155°
2026-04-30 14:52 51.79969 -0.14026 10515 ft 257 kts 155°
2026-04-30 14:52 51.78341 -0.12916 11456 ft 261 kts 154°
2026-04-30 14:53 51.75506 -0.09358 13402 ft 268 kts 127°
2026-04-30 14:53 51.74476 -0.06870 14403 ft 273 kts 123°
2026-04-30 14:54 51.72418 -0.01688 16364 ft 280 kts 123°
2026-04-30 14:54 51.70325 0.03555 18356 ft 282 kts 124°
2026-04-30 14:55 51.68226 0.08803 20296 ft 279 kts 124°
2026-04-30 14:55 51.67202 0.11357 21255 ft 276 kts 124°
2026-04-30 14:55 51.65147 0.16473 23111 ft 270 kts 124°
2026-04-30 14:56 51.63144 0.21450 24834 ft 265 kts 124°
2026-04-30 14:56 51.61076 0.26570 25495 ft 295 kts 124°
2026-04-30 14:57 51.59916 0.29436 25543 ft 318 kts 124°
2026-04-30 14:57 51.57400 0.35648 26308 ft 339 kts 124°
2026-04-30 14:58 51.54823 0.41998 27555 ft 344 kts 124°
2026-04-30 14:58 51.53518 0.45208 28119 ft 347 kts 124°
2026-04-30 14:58 51.50867 0.51716 29224 ft 352 kts 124°
2026-04-30 14:59 51.48150 0.58368 30188 ft 358 kts 123°
2026-04-30 15:00 51.44031 0.68417 31493 ft 366 kts 124°
2026-04-30 15:00 51.41192 0.75321 32266 ft 371 kts 124°
2026-04-30 15:01 51.38322 0.82282 33036 ft 375 kts 124°
2026-04-30 15:01 51.36885 0.85761 33386 ft 377 kts 124°
2026-04-30 15:01 51.33962 0.92820 34005 ft 382 kts 124°
2026-04-30 15:02 51.32491 0.96366 34403 ft 381 kts 124°
2026-04-30 15:02 51.31028 0.99889 34800 ft 380 kts 124°
2026-04-30 15:03 51.27746 1.11369 35631 ft 384 kts 105°
2026-04-30 15:03 51.26409 1.19738 36093 ft 386 kts 105°
2026-04-30 15:04 51.25064 1.28068 36555 ft 387 kts 105°
2026-04-30 15:04 51.23031 1.40565 37415 ft 387 kts 105°
2026-04-30 15:05 51.20967 1.53134 38107 ft 390 kts 105°
2026-04-30 15:06 51.19579 1.61527 38518 ft 392 kts 105°
2026-04-30 15:06 51.18180 1.69945 39003 ft 392 kts 106°
2026-04-30 15:07 51.16769 1.78394 39213 ft 396 kts 106°
2026-04-30 15:08 51.13882 1.95536 39203 ft 409 kts 106°
2026-04-30 15:08 51.11793 2.08943 39191 ft 421 kts 104°
2026-04-30 15:09 51.10439 2.18130 39229 ft 427 kts 104°
2026-04-30 15:10 51.07668 2.36727 39225 ft 437 kts 104°
2026-04-30 15:11 51.03343 2.65291 39225 ft 448 kts 104°
2026-04-30 15:13 50.99623 2.89440 39235 ft 456 kts 104°
2026-04-30 15:14 50.94217 3.23901 39211 ft 459 kts 104°
2026-04-30 15:17 50.87118 3.68080 39244 ft 460 kts 105°
2026-04-30 15:19 50.80673 4.07208 39259 ft 458 kts 105°